This demonstration page uses our WeatherBlox Daily Observations layout. Learn more.

Left ArrowRight Arrow

Hourly Observations for April 3, 2015

Temp ( °F °C ) Dew Point ( °F °C ) Humidity (%) Winds ( mph kmh ) Pressure ( in mb ) Visibility ( mi km ) Precip ( " mm )
12:16 am 00:16 Partly Cloudy 57 14 N/A N/A N 7 11 29.85 1011 10 16.0934 N/A
12:36 am 00:36 Partly Cloudy 55 13 N/A N/A ENE 3 6 29.85 1011 7 11.26538 N/A
12:56 am 00:56 Partly Cloudy 55 13 N/A N/A NNE 7 11 29.88 1012 7 11.26538 N/A
1:16 am 01:16 Mostly Cloudy 55 13 N/A N/A NNE 6 9 29.88 1012 5 8.0467 N/A
1:35 am 01:35 Cloudy 55 13 N/A N/A N 7 11 29.88 1012 4 6.43736 N/A
1:56 am 01:56 Cloudy 55 13 N/A N/A ENE 5 7 29.88 1012 4 6.43736 N/A
2:16 am 02:16 Mostly Cloudy 55 13 N/A N/A NNE 9 15 29.88 1012 4 6.43736 N/A
2:35 am 02:35 Mostly Cloudy 54 12 N/A N/A N 6 9 29.88 1012 3 4.82802 N/A
2:56 am 02:56 Partly Cloudy 54 12 N/A N/A NNE 7 11 29.85 1011 3 4.82802 N/A
3:16 am 03:16 Clear 54 12 N/A N/A NE 6 9 29.85 1011 3 4.82802 N/A
3:35 am 03:35 Partly Cloudy 52 11 N/A N/A NE 7 11 29.83 1010 2.5 4.02335 N/A
3:56 am 03:56 Partly Cloudy 54 12 N/A N/A ENE 3 6 29.83 1010 2.5 4.02335 N/A
4:16 am 04:16 Partly Cloudy 52 11 N/A N/A Calm 29.88 1012 2.5 4.02335 N/A
4:35 am 04:35 Mostly Cloudy 52 11 N/A N/A Calm 29.88 1012 2 3.21868 N/A
4:56 am 04:56 Partly Cloudy 52 11 N/A N/A NE 5 7 29.85 1011 2 3.21868 N/A
5:15 am 05:15 Partly Cloudy 52 11 N/A N/A NE 5 7 29.83 1010 2 3.21868 N/A
5:36 am 05:36 Partly Cloudy 52 11 N/A N/A NE 8 13 29.83 1010 2.5 4.02335 N/A
5:56 am 05:56 Mostly Cloudy 52 11 N/A N/A E 6 9 29.83 1010 3 4.82802 N/A
6:15 am 06:15 Partly Cloudy 52 11 N/A N/A E 5 7 29.83 1010 3 4.82802 N/A
6:36 am 06:36 Mostly Cloudy 52 11 N/A N/A Calm 29.83 1010 4 6.43736 N/A
6:56 am 06:56 Mostly Cloudy 52 11 N/A N/A SE 3 6 29.83 1010 4 6.43736 N/A
7:15 am 07:15 Partly Cloudy 52 11 N/A N/A ESE 6 9 29.8 1009 5 8.0467 N/A
7:36 am 07:36 Partly Cloudy 52 11 N/A N/A Calm 29.83 1010 5 8.0467 N/A
7:56 am 07:56 Cloudy 52 11 N/A N/A N 5 7 29.85 1011 4 6.43736 N/A
8:15 am 08:15 Cloudy 52 11 N/A N/A NE 5 7 29.83 1010 3 4.82802 N/A
8:36 am 08:36 Cloudy 52 11 N/A N/A Calm 29.83 1010 3 4.82802 N/A
8:56 am 08:56 Cloudy 54 12 N/A N/A NNE 5 7 29.83 1010 5 8.0467 N/A
9:15 am 09:15 Cloudy 52 11 N/A N/A NNE 6 9 29.83 1010 5 8.0467 N/A
9:36 am 09:36 Cloudy 54 12 54 12 100 100 Calm 29.85 1011 7 11.26538 N/A
9:56 am 09:56 Cloudy 54 12 54 12 100 100 N 3 6 29.88 1012 10 16.0934 N/A
10:15 am 10:15 Cloudy 54 12 54 12 100 100 Calm 29.85 1011 10 16.0934 N/A
10:36 am 10:36 Cloudy 52 11 48 9 88 88 NW 8 13 29.91 1013 3 4.82802 N/A
10:56 am 10:56 Cloudy 52 11 48 9 88 88 WNW 8 13 29.94 1014 4 6.43736 N/A
11:15 am 11:15 Cloudy 52 11 50 10 94 94 ENE 8 13 29.88 1012 7 11.26538 N/A
11:36 am 11:36 Partly Cloudy 52 11 43 6 72 72 SE 8 13 29.83 1010 10 16.0934 N/A
11:56 am 11:56 Sunny 52 11 37 3 58 58 SE 9 15 29.83 1010 10 16.0934 N/A
12:16 pm 12:16 Sunny 54 12 37 3 54 54 Calm 29.83 1010 10 16.0934 N/A
12:36 pm 12:36 Sunny 57 14 37 3 48 48 ENE 3 6 29.83 1010 10 16.0934 N/A
12:55 pm 12:55 Mostly Cloudy 59 15 32 0 36 36 NE 7 11 29.83 1010 10 16.0934 N/A
1:16 pm 13:16 Mostly Cloudy 59 15 28 -2 31 31 NE 8 13 29.83 1010 10 16.0934 N/A
1:36 pm 13:36 Cloudy 59 15 28 -2 31 31 N 7 11 29.85 1011 10 16.0934 N/A
1:55 pm 13:55 Cloudy 57 14 30 -1 36 36 N 6 9 29.83 1010 10 16.0934 N/A
2:16 pm 14:16 Cloudy 57 14 32 0 39 39 NNW 8 13 29.85 1011 10 16.0934 N/A
2:36 pm 14:36 Cloudy 57 14 34 1 41 41 N 10 17 29.85 1011 10 16.0934 N/A
2:55 pm 14:55 Cloudy 57 14 37 3 48 48 N 12 19 29.83 1010 10 16.0934 N/A
3:16 pm 15:16 Mostly Cloudy 54 12 36 2 51 51 N 23 37 29.85 1011 10 16.0934 N/A
3:36 pm 15:36 Mostly Cloudy 54 12 36 2 51 51 N 17 28 29.83 1010 10 16.0934 N/A
3:55 pm 15:55 Mostly Cloudy 54 12 36 2 51 51 N 18 30 29.83 1010 10 16.0934 N/A
4:16 pm 16:16 Mostly Cloudy 52 11 30 -1 44 44 N 22 35 29.83 1010 10 16.0934 N/A
4:36 pm 16:36 Mostly Cloudy 52 11 27 -3 38 38 N 13 20 29.83 1010 10 16.0934 N/A
4:55 pm 16:55 Cloudy 50 10 30 -1 47 47 N 28 44 29.91 1013 10 16.0934 N/A
5:16 pm 17:16 Cloudy 45 7 45 7 100 100 NNW 22 35 29.94 1014 4 6.43736 N/A
5:35 pm 17:35 Cloudy 45 7 N/A N/A N 16 26 29.94 1014 7 11.26538 N/A
5:56 pm 17:56 Cloudy 45 7 N/A N/A N 13 20 29.94 1014 10 16.0934 N/A
6:16 pm 18:16 Cloudy 45 7 N/A N/A NNW 10 17 29.94 1014 10 16.0934 N/A
6:35 pm 18:35 Partly Cloudy 46 8 N/A N/A N 7 11 29.94 1014 10 16.0934 N/A
6:56 pm 18:56 Sunny 46 8 43 6 87 87 NNW 6 9 29.94 1014 10 16.0934 N/A
7:16 pm 19:16 Partly Cloudy 46 8 41 5 82 82 NW 5 7 29.94 1014 10 16.0934 N/A
7:35 pm 19:35 Partly Cloudy 46 8 41 5 82 82 WNW 6 9 29.97 1015 10 16.0934 N/A
7:56 pm 19:56 Sunny 46 8 45 7 93 93 W 6 9 29.97 1015 10 16.0934 N/A
8:16 pm 20:16 Clear 45 7 45 7 100 100 W 8 13 29.97 1015 10 16.0934 N/A
8:35 pm 20:35 Partly Cloudy 45 7 N/A N/A W 8 13 30 1016 10 16.0934 N/A
8:56 pm 20:56 Mostly Cloudy 45 7 N/A N/A W 7 11 30 1016 10 16.0934 N/A
9:16 pm 21:16 Mostly Cloudy 45 7 N/A N/A WNW 9 15 30.03 1017 10 16.0934 N/A
9:35 pm 21:35 Mostly Cloudy 46 8 34 1 62 62 NNW 13 20 30.03 1017 10 16.0934 N/A
9:56 pm 21:56 Mostly Cloudy 45 7 30 -1 57 57 N 13 20 30.06 1018 10 16.0934 N/A
10:16 pm 22:16 Partly Cloudy 43 6 30 -1 61 61 NNW 10 17 30.06 1018 10 16.0934 N/A
10:35 pm 22:35 Partly Cloudy 43 6 28 -2 57 57 NNW 14 22 30.06 1018 10 16.0934 N/A
10:56 pm 22:56 Clear 41 5 28 -2 61 61 NNW 14 22 30.09 1019 10 16.0934 N/A
11:16 pm 23:16 Clear 41 5 28 -2 61 61 NNW 15 24 30.09 1019 10 16.0934 N/A
11:36 pm 23:36 Mostly Cloudy 41 5 27 -3 57 57 NNW 15 24 30.12 1020 10 16.0934 N/A
11:56 pm 23:56 Mostly Cloudy 39 4 27 -3 61 61 NNW 13 20 30.12 1020 10 16.0934 N/A

Powered by AerisWeather